Sunlight Mountain, CO

10:06 PM MDT on April 28, 2017 (GMT -0600)
Sunlight Mountain

Weather History for K5SM - October, 2013

Change the Weather History Date:

Wednesday, October 16, 2013

  Actual Average (KRIL) Record (KRIL)
Temperature  
Mean Temperature 26 °F -  
Max Temperature 30 °F 67 °F 84 °F (1936)
Min Temperature 23 °F 30 °F 20 °F (1952)
Degree Days  
Heating Degree Days 38    
Moisture  
Dew Point 24 °F    
Average Humidity 92    
Maximum Humidity 100    
Minimum Humidity 86    
Precipitation  
Precipitation 0.00 in - - ()
Sea Level Pressure  
Sea Level Pressure 30.21 in    
Wind  
Wind Speed 1 mph (WNW)    
Max Wind Speed 5 mph    
Max Gust Speed -    
Visibility 7 miles    
Events Fog    
Averages and records for this station are not official NWS values.
T = Trace of Precipitation, MM = Missing Value Source: NWS Daily Summary

Daily Weather History Graph

Daily Weather History Graph

Search for Another Location

Airport or City:

Trip Planner

Search our weather history database for the weather conditions in past years. The results will help you decide how hot, cold, wet, or windy it might be!

Date:

Astronomy

Oct. 16, 2013 Rise Set
Actual Time 7:20 AM MDT 6:28 PM MDT
Civil Twilight 6:53 AM MDT 6:55 PM MDT
Nautical Twilight 6:22 AM MDT 7:26 PM MDT
Astronomical Twilight 5:51 AM MDT 7:57 PM MDT
Moon 5:09 PM MDT (10/16) 4:52 AM MDT (10/16)
Length of Visible Light 12h 02m
Length of Day
11h 07m
Waxing Gibbous, 94% of the Moon is Illuminated
Oct 16
Waxing Gibbous
Oct 18
Full
Oct 26
Last Quarter
Nov 3
New
Nov 9
First Quarter

Hourly Weather History & Observations

Time (MDT) Temp. Windchill Dew Point Humidity Pressure Visibility Wind Dir Wind Speed Gust Speed Precip Events Conditions
12:10 AM - - - N/A% 30.19 in 10.0 mi Calm Calm - N/A   Overcast
12:30 AM - - - N/A% 30.19 in 10.0 mi NNE 3.5 mph - N/A   Overcast
12:50 AM - - - N/A% 30.19 in 10.0 mi Calm Calm - N/A   Overcast
1:10 AM - - - N/A% 30.18 in 7.0 mi Calm Calm - N/A   Unknown
1:30 AM - - - N/A% 30.18 in 0.5 mi North 3.5 mph - N/A   Unknown
1:50 AM - - - N/A% 30.19 in 0.2 mi Calm Calm - N/A Fog Fog
2:10 AM - - - N/A% 30.19 in 0.5 mi Calm Calm - N/A   Unknown
2:30 AM - - - N/A% 30.18 in 0.5 mi Calm Calm - N/A   Unknown
2:50 AM - - - N/A% 30.17 in 4.0 mi Calm Calm - N/A   Unknown
3:10 AM - - - N/A% 30.17 in 7.0 mi Calm Calm - N/A   Unknown
3:30 AM - - - N/A% 30.16 in 10.0 mi Calm Calm - N/A   Mostly Cloudy
3:50 AM - - - N/A% 30.16 in 10.0 mi Calm Calm - N/A   Clear
4:10 AM - - - N/A% 30.16 in 10.0 mi Calm Calm - N/A   Clear
4:30 AM - - - N/A% 30.16 in 10.0 mi Calm Calm - N/A   Clear
4:50 AM - - - N/A% 30.16 in 10.0 mi Calm Calm - N/A   Clear
5:10 AM - - - N/A% 30.16 in 10.0 mi Calm Calm - N/A   Clear
5:30 AM - - - N/A% 30.16 in 0.5 mi WNW 3.5 mph - N/A Fog Fog
5:49 AM - - - N/A% 30.16 in 0.2 mi WNW 4.6 mph - N/A Fog Fog
6:10 AM - - - N/A% 30.16 in 0.2 mi West 3.5 mph - N/A Fog Fog
6:30 AM - - - N/A% 30.17 in 0.8 mi West 3.5 mph - N/A   Overcast
6:50 AM - - - N/A% 30.17 in 1.5 mi Calm Calm - N/A   Overcast
7:09 AM - - - N/A% 30.18 in 1.2 mi Calm Calm - N/A   Overcast
7:30 AM - - - N/A% 30.18 in 5.0 mi Calm Calm - N/A   Haze
7:50 AM - - - N/A% 30.19 in 7.0 mi Calm Calm - N/A   Overcast
8:10 AM - - - N/A% 30.20 in 5.0 mi Calm Calm - N/A   Haze
8:30 AM - - - N/A% 30.20 in 7.0 mi Calm Calm - N/A   Overcast
8:50 AM - - - N/A% 30.20 in 7.0 mi Calm Calm - N/A   Overcast
9:10 AM - - - N/A% 30.21 in 7.0 mi Calm Calm - N/A   Overcast
9:30 AM - - - N/A% 30.22 in 7.0 mi Calm Calm - N/A   Overcast
9:50 AM - - - N/A% 30.22 in 10.0 mi Calm Calm - N/A   Overcast
10:10 AM - - - N/A% 30.22 in 10.0 mi Calm Calm - N/A   Scattered Clouds
10:30 AM - - - N/A% 30.22 in 7.0 mi Calm Calm - N/A   Scattered Clouds
10:49 AM - - - N/A% 30.22 in 10.0 mi Calm Calm - N/A   Clear
11:10 AM - - - N/A% 30.23 in 7.0 mi Calm Calm - N/A   Scattered Clouds
11:30 AM - - - N/A% 30.23 in 10.0 mi Calm Calm - N/A   Scattered Clouds
11:50 AM - - - N/A% 30.23 in 10.0 mi Calm Calm - N/A   Clear
12:10 PM - - - N/A% 30.23 in 10.0 mi Calm Calm - N/A   Clear
12:30 PM - - - N/A% 30.22 in 10.0 mi Calm Calm - N/A   Clear
12:50 PM 26.6 °F - 24.8 °F 93% 30.22 in 7.0 mi Calm Calm - N/A   Clear
1:10 PM 26.6 °F 22.6 °F 26.6 °F 100% 30.22 in 5.0 mi SW 3.5 mph - N/A   Clear
1:30 PM 28.4 °F - 26.6 °F 93% 30.21 in 7.0 mi Calm Calm - N/A   Clear
1:50 PM 28.4 °F - 26.6 °F 93% 30.21 in 7.0 mi Calm Calm - N/A   Clear
2:10 PM 28.4 °F - 26.6 °F 93% 30.22 in 5.0 mi Calm Calm - N/A   Clear
2:30 PM 30.2 °F - 26.6 °F 86% 30.21 in 7.0 mi Calm Calm - N/A   Clear
2:50 PM 30.2 °F - 26.6 °F 86% 30.22 in 5.0 mi Calm Calm - N/A   Clear
3:10 PM 30.2 °F - 28.4 °F 93% 30.22 in 5.0 mi Calm Calm - N/A   Scattered Clouds
3:30 PM 30.2 °F - 28.4 °F 93% 30.22 in 5.0 mi Calm Calm - N/A   Scattered Clouds
3:50 PM 30.2 °F - 28.4 °F 93% 30.22 in 5.0 mi Calm Calm - N/A   Scattered Clouds
4:10 PM 30.2 °F - 28.4 °F 93% 30.22 in 7.0 mi Calm Calm - N/A   Scattered Clouds
4:30 PM 30.2 °F - 26.6 °F 86% 30.22 in 7.0 mi Calm Calm - N/A   Clear
4:50 PM 28.4 °F - 26.6 °F 93% 30.22 in 7.0 mi Calm Calm - N/A   Scattered Clouds
5:10 PM 28.4 °F - 26.6 °F 93% 30.22 in 5.0 mi Calm Calm - N/A   Scattered Clouds
5:30 PM 26.6 °F - 24.8 °F 93% 30.22 in 5.0 mi Calm Calm - N/A   Clear
5:50 PM 26.6 °F - 24.8 °F 93% 30.23 in 5.0 mi Calm Calm - N/A   Clear
6:10 PM 24.8 °F - 23.0 °F 93% 30.23 in 7.0 mi Calm Calm - N/A   Clear
6:30 PM 23.0 °F - 21.2 °F 93% 30.24 in 10.0 mi Calm Calm - N/A   Clear
7:09 PM 24.8 °F - 23.0 °F 93% 30.24 in 7.0 mi Calm Calm - N/A   Clear
7:30 PM 23.0 °F - 21.2 °F 93% 30.24 in 7.0 mi Calm Calm - N/A   Clear
7:50 PM 23.0 °F - 21.2 °F 93% 30.24 in 7.0 mi Calm Calm - N/A   Clear
8:10 PM 23.0 °F - 19.4 °F 86% 30.25 in 7.0 mi Calm Calm - N/A   Clear
8:30 PM 23.0 °F - 19.4 °F 86% 30.25 in 10.0 mi Calm Calm - N/A   Clear
8:50 PM 23.0 °F - 19.4 °F 86% 30.25 in 10.0 mi Calm Calm - N/A   Clear
9:09 PM 23.0 °F - 21.2 °F 93% 30.26 in 7.0 mi Calm Calm - N/A   Clear
9:30 PM 23.0 °F - 21.2 °F 93% 30.26 in 7.0 mi Calm Calm - N/A   Clear
9:50 PM 23.0 °F - 21.2 °F 93% 30.26 in 7.0 mi Calm Calm - N/A   Clear
10:10 PM 23.0 °F - 21.2 °F 93% 30.26 in 7.0 mi Calm Calm - N/A   Clear
10:30 PM 23.0 °F - 21.2 °F 93% 30.26 in 7.0 mi Calm Calm - N/A   Clear
10:50 PM 23.0 °F - 21.2 °F 93% 30.26 in 7.0 mi Calm Calm - N/A   Scattered Clouds
11:10 PM 23.0 °F - 21.2 °F 93% 30.25 in 7.0 mi Calm Calm - N/A   Clear
11:30 PM 23.0 °F - 21.2 °F 93% 30.25 in 7.0 mi Calm Calm - N/A   Clear
11:50 PM 23.0 °F - 21.2 °F 93% 30.25 in 7.0 mi Calm Calm - N/A   Clear